Middletown, PA

9:24 AM EST on December 04, 2016 (GMT -0500)
Harrisburg International

Weather History for KMDT - April, 2013

Change the Weather History Date:

Tuesday, April 2, 2013

  Actual Average Record
Temperature  
Mean Temperature 37 °F 47 °F  
Max Temperature 44 °F 57 °F 87 °F (1963)
Min Temperature 30 °F 38 °F 22 °F (1964)
Degree Days  
Heating Degree Days 28 18  
Month to date heating degree days 47 36  
Since 1 July heating degree days 4647 4747  
Cooling Degree Days 0 0  
Month to date cooling degree days 0 0  
Year to date cooling degree days 0 1  
Moisture  
Dew Point 15 °F    
Average Humidity 44    
Maximum Humidity 58    
Minimum Humidity 29    
Precipitation  
Precipitation T in 0.12 in 1.92 in (2005)
Month to date precipitation T 0.23  
Year to date precipitation 7.39 8.87  
Snow  
Snow T in 0.10 in 0.30 in (1911)
Month to date snowfall T 0.1  
Since 1 July snowfall 17.0 30.3  
Snow Depth 0.00 in    
Sea Level Pressure  
Sea Level Pressure 30.07 in    
Wind  
Wind Speed 12 mph (WNW)    
Max Wind Speed 16 mph    
Max Gust Speed 22 mph    
Visibility 10 miles    
Events Snow    
T = Trace of Precipitation, MM = Missing Value Source: NWS Daily Summary

Daily Weather History Graph

Daily Weather History Graph

Search for Another Location

Airport or City:

Trip Planner

Search our weather history database for the weather conditions in past years. The results will help you decide how hot, cold, wet, or windy it might be!

Date:

Astronomy

Apr. 02, 2013 Rise Set
Actual Time 6:48 AM EDT 7:32 PM EDT
Civil Twilight 6:21 AM EDT 8:00 PM EDT
Nautical Twilight 5:49 AM EDT 8:32 PM EDT
Astronomical Twilight 5:15 AM EDT 9:06 PM EDT
Moon 1:35 AM EDT (4/2) 11:37 AM EDT (4/2)
Length of Visible Light 13h 38m
Length of Day
12h 43m
Waning Gibbous, 56% of the Moon is Illuminated
Apr 2
Waning Gibbous
Apr 3
Last Quarter
Apr 10
New
Apr 18
First Quarter
Apr 25
Full

Hourly Weather History & Observations

Time (EDT) Temp. Windchill Dew Point Humidity Pressure Visibility Wind Dir Wind Speed Gust Speed Precip Events Conditions
12:56 AM 35.1 °F 26.9 °F 10.9 °F 37% 29.99 in 10.0 mi NW 11.5 mph - N/A   Partly Cloudy
1:56 AM 35.1 °F 28.6 °F 14.0 °F 42% 30.00 in 10.0 mi WNW 8.1 mph - N/A   Mostly Cloudy
2:56 AM 34.0 °F 27.2 °F 15.1 °F 46% 30.00 in 10.0 mi WNW 8.1 mph - N/A   Mostly Cloudy
3:56 AM 34.0 °F 28.8 °F 15.1 °F 46% 30.00 in 10.0 mi WNW 5.8 mph - N/A   Mostly Cloudy
4:56 AM 30.9 °F 25.2 °F 14.0 °F 50% 30.01 in 10.0 mi NNW 5.8 mph - N/A   Scattered Clouds
5:56 AM 30.9 °F 24.3 °F 17.1 °F 57% 30.02 in 10.0 mi WNW 6.9 mph - N/A   Scattered Clouds
6:56 AM 32.0 °F 22.5 °F 16.0 °F 52% 30.04 in 10.0 mi WNW 12.7 mph - N/A   Partly Cloudy
7:56 AM 34.0 °F 25.0 °F 16.0 °F 48% 30.08 in 10.0 mi WNW 12.7 mph - N/A   Partly Cloudy
8:56 AM 35.1 °F 25.2 °F 14.0 °F 42% 30.10 in 10.0 mi NW 16.1 mph 24.2 mph N/A   Scattered Clouds
9:56 AM 36.0 °F 26.3 °F 18.0 °F 48% 30.11 in 9.0 mi WNW 16.1 mph 25.3 mph 0.00 in Snow Light Snow
10:56 AM 37.0 °F 26.4 °F 14.0 °F 39% 30.11 in 10.0 mi WNW 20.7 mph 26.5 mph N/A   Partly Cloudy
11:56 AM 37.9 °F 29.2 °F 12.9 °F 36% 30.11 in 10.0 mi NW 15.0 mph 21.9 mph N/A   Mostly Cloudy
12:56 PM 41.0 °F 33.1 °F 16.0 °F 36% 30.09 in 10.0 mi West 15.0 mph 23.0 mph N/A   Scattered Clouds
1:56 PM 41.0 °F 32.5 °F 15.1 °F 35% 30.07 in 10.0 mi West 17.3 mph 29.9 mph N/A   Mostly Cloudy
2:56 PM 43.0 °F 36.8 °F 12.9 °F 30% 30.06 in 10.0 mi West 11.5 mph 25.3 mph N/A   Mostly Cloudy
3:56 PM 43.0 °F 36.0 °F 12.0 °F 28% 30.05 in 10.0 mi WNW 13.8 mph 20.7 mph N/A   Scattered Clouds
4:56 PM 43.0 °F 35.7 °F 12.9 °F 30% 30.05 in 10.0 mi WNW 15.0 mph 21.9 mph N/A   Scattered Clouds
5:56 PM 43.0 °F 34.0 °F 15.1 °F 32% 30.07 in 10.0 mi NW 21.9 mph 26.5 mph N/A   Scattered Clouds
6:56 PM 41.0 °F 32.5 °F 15.1 °F 35% 30.09 in 10.0 mi WNW 17.3 mph - N/A   Partly Cloudy
7:56 PM 39.0 °F 31.4 °F 12.9 °F 34% 30.11 in 10.0 mi WNW 12.7 mph - N/A   Partly Cloudy
9:56 PM 37.9 °F 30.9 °F 15.1 °F 39% 30.16 in 10.0 mi West 10.4 mph - N/A   Scattered Clouds
10:56 PM 37.0 °F 29.3 °F 15.1 °F 41% 30.17 in 10.0 mi WNW 11.5 mph - N/A   Partly Cloudy
11:56 PM 36.0 °F 28.5 °F 15.1 °F 43% 30.17 in 10.0 mi WNW 10.4 mph - N/A   Clear